Location: Équennes
(49.7375°N, 1.9622°E)
Time: 17:50:25
(UTC+00:00)

Cosmos 2278 - Pass Details

Date: 27 September 2023
Orbit: 838 x 853 km, 71.1° (Epoch: 08 December)

Event Time Altitude Azimuth Distance (km) Brightness Sun altitude
Rises 18:08:52 0° 231° (SW) 3,391 7.7 -5.5°
Reaches altitude 10° 18:11:26 10° 239° (WSW) 2,462 7.1 -5.9°
Maximum altitude 18:16:45 41° 309° (NW) 1,218 5.1 -6.8°
Drops below altitude 10° 18:22:08 10° 19° (NNE) 2,484 6.0 -7.6°
Sets 18:24:45 0° 27° (NNE) 3,426 6.7 -8.0°
